EA3BIN-13 Weather Reports


Display with metric or nautical units.
time (UTC)temp
F
wind
direction
speed
MPH
gust
MPH
rain 1hr
in
rain 24hr
in
rain mn
in
humidity
%
barometer
mb
20260901201041 74 0.0 0.0 0.00 0.00 0.00 10 1018.8
20260901200037 74 0.0 0.0 0.00 0.00 0.00 10 1018.8
20260901195041 75 0.0 0.0 0.00 0.00 0.00 99 1018.6
20260901194041 75 0.0 0.0 0.00 0.00 0.00 97 1018.4
20260901193042 75 0.0 0.0 0.00 0.00 0.00 96 1018.4
20260901192041 75 0.0 0.0 0.00 0.00 0.00 94 1018.4
20260901191036 76 0.0 0.0 0.00 0.00 0.00 92 1018.2
20260901190041 76 0.0 0.0 0.00 0.00 0.00 91 1018.0
20260901185036 76 0.0 0.0 0.00 0.00 0.00 90 1018.0
20260901184036 76 0.0 0.0 0.00 0.00 0.00 87 1017.7
20260901183036 77 0.0 0.0 0.00 0.00 0.00 84 1017.4
20260901182042 78 0.0 0.0 0.00 0.00 0.00 79 1017.5
20260901181036 79 0.0 0.0 0.00 0.00 0.00 76 1017.5
20260901180041 80 0.0 0.0 0.00 0.00 0.00 71 1017.5
20260901175036 81 0.0 0.0 0.00 0.00 0.00 68 1017.6
20260901174036 82 0.0 0.0 0.00 0.00 0.00 66 1017.7
20260901173036 83 0.0 0.0 0.00 0.00 0.00 61 1017.7
20260901172036 87 0.0 0.0 0.00 0.00 0.00 54 1017.4
20260901171036 81 0.0 0.0 0.00 0.00 0.00 66 1018.1
20260901170036 82 0.0 0.0 0.00 0.00 0.00 64 1017.8
20260901165036 82 0.0 0.0 0.00 0.00 0.00 62 1017.9
20260901164036 82 0.0 0.0 0.00 0.00 0.00 59 1017.9
20260901163042 84 0.0 0.0 0.00 0.00 0.00 53 1017.8
20260901162036 88 0.0 0.0 0.00 0.00 0.00 46 1017.8
20260901161036 97 0.0 0.0 0.00 0.00 0.00 35 1017.0
20260901160036 103 0.0 0.0 0.00 0.00 0.00 30 1016.2
20260901155036 111 0.0 0.0 0.00 0.00 0.00 24 1015.6
20260901154036 124 0.0 0.0 0.00 0.00 0.00 18 1014.8
20260901153036 122 0.0 0.0 0.00 0.00 0.00 19 1015.0
20260901152036 118 0.0 0.0 0.00 0.00 0.00 22 1015.3
20260901151036 96 0.0 0.0 0.00 0.00 0.00 40 1017.3
20260901150036 88 0.0 0.0 0.00 0.00 0.00 49 1017.8
20260901145036 90 0.0 0.0 0.00 0.00 0.00 45 1018.0
20260901144038 99 0.0 0.0 0.00 0.00 0.00 35 1017.2
20260901143036 97 0.0 0.0 0.00 0.00 0.00 38 1017.1
20260901142036 87 0.0 0.0 0.00 0.00 0.00 48 1018.2
20260901141036 93 0.0 0.0 0.00 0.00 0.00 42 1017.6
20260901140036 87 0.0 0.0 0.00 0.00 0.00 48 1017.9
20260901135036 90 0.0 0.0 0.00 0.00 0.00 46 1017.9
20260901134036 87 0.0 0.0 0.00 0.00 0.00 52 1018.2
20260901133036 85 0.0 0.0 0.00 0.00 0.00 54 1018.7
20260901132036 86 0.0 0.0 0.00 0.00 0.00 52 1018.7
20260901131036 90 0.0 0.0 0.00 0.00 0.00 45 1018.7
20260901130036 92 0.0 0.0 0.00 0.00 0.00 45 1018.5
20260901125036 89 0.0 0.0 0.00 0.00 0.00 47 1018.9
20260901124036 91 0.0 0.0 0.00 0.00 0.00 44 1018.7
20260901123041 93 0.0 0.0 0.00 0.00 0.00 42 1018.4
20260901122036 92 0.0 0.0 0.00 0.00 0.00 41 1018.6
20260901121037 93 0.0 0.0 0.00 0.00 0.00 43 1018.8
20260901120036 89 0.0 0.0 0.00 0.00 0.00 48 1019.0
20260901115036 88 0.0 0.0 0.00 0.00 0.00 48 1019.1
20260901114042 88 0.0 0.0 0.00 0.00 0.00 48 1019.1
20260901113036 86 0.0 0.0 0.00 0.00 0.00 52 1019.5
20260901112036 86 0.0 0.0 0.00 0.00 0.00 55 1019.5
20260901111036 87 0.0 0.0 0.00 0.00 0.00 52 1019.5
20260901110037 89 0.0 0.0 0.00 0.00 0.00 48 1019.3
20260901105036 88 0.0 0.0 0.00 0.00 0.00 50 1019.4
20260901104036 86 0.0 0.0 0.00 0.00 0.00 52 1019.4
20260901103036 84 0.0 0.0 0.00 0.00 0.00 57 1019.9
20260901102042 84 0.0 0.0 0.00 0.00 0.00 54 1019.9
20260901101036 86 0.0 0.0 0.00 0.00 0.00 53 1019.8
20260901100036 84 0.0 0.0 0.00 0.00 0.00 56 1019.9
20260901095036 85 0.0 0.0 0.00 0.00 0.00 57 1019.9
20260901094042 83 0.0 0.0 0.00 0.00 0.00 59 1019.9
20260901093036 83 0.0 0.0 0.00 0.00 0.00 62 1019.8
20260901092036 82 0.0 0.0 0.00 0.00 0.00 63 1019.8
20260901091036 82 0.0 0.0 0.00 0.00 0.00 66 1019.6
20260901090037 81 0.0 0.0 0.00 0.00 0.00 73 1019.7
20260901085036 80 0.0 0.0 0.00 0.00 0.00 76 1019.6
20260901084036 80 0.0 0.0 0.00 0.00 0.00 78 1019.7
20260901083047 79 0.0 0.0 0.00 0.00 0.00 81 1019.6
20260901082042 78 0.0 0.0 0.00 0.00 0.00 90 1019.7
20260901081036 77 0.0 0.0 0.00 0.00 0.00 93 1019.7
20260901080036 76 0.0 0.0 0.00 0.00 0.00 99 1019.9
20260901075047 76 0.0 0.0 0.00 0.00 0.00 10 1019.9
20260901074036 75 0.0 0.0 0.00 0.00 0.00 10 1019.9
20260901073036 75 0.0 0.0 0.00 0.00 0.00 10 1020.0
20260901072036 73 0.0 0.0 0.00 0.00 0.00 10 1020.2
20260901071036 72 0.0 0.0 0.00 0.00 0.00 10 1020.3
20260901070036 72 0.0 0.0 0.00 0.00 0.00 10 1020.4
20260901065036 71 0.0 0.0 0.00 0.00 0.00 10 1020.6
20260901064036 71 0.0 0.0 0.00 0.00 0.00 10 1020.7
20260901063036 70 0.0 0.0 0.00 0.00 0.00 10 1020.6
20260901062037 70 0.0 0.0 0.00 0.00 0.00 10 1020.6
20260901061036 70 0.0 0.0 0.00 0.00 0.00 10 1020.5
20260901060036 69 0.0 0.0 0.00 0.00 0.00 10 1020.5
20260901055041 68 0.0 0.0 0.00 0.00 0.00 10 1020.6
20260901054042 68 0.0 0.0 0.00 0.00 0.00 10 1020.5
20260901053036 68 0.0 0.0 0.00 0.00 0.00 10 1020.6
20260901052036 68 0.0 0.0 0.00 0.00 0.00 10 1020.5
20260901051041 68 0.0 0.0 0.00 0.00 0.00 10 1020.4
20260901050036 68 0.0 0.0 0.00 0.00 0.00 10 1020.5
20260901045036 68 0.0 0.0 0.00 0.00 0.00 10 1020.5
20260901044036 68 0.0 0.0 0.00 0.00 0.00 10 1020.4
20260901043036 68 0.0 0.0 0.00 0.00 0.00 10 1020.5
20260901042036 69 0.0 0.0 0.00 0.00 0.00 10 1020.5
20260901041036 69 0.0 0.0 0.00 0.00 0.00 10 1020.5
20260901040036 69 0.0 0.0 0.00 0.00 0.00 10 1020.5
20260901035036 69 0.0 0.0 0.00 0.00 0.00 10 1020.5
20260901034036 69 0.0 0.0 0.00 0.00 0.00 10 1020.6
20260901033036 69 0.0 0.0 0.00 0.00 0.00 10 1020.5
20260901032037 69 0.0 0.0 0.00 0.00 0.00 10 1020.5
20260901031036 70 0.0 0.0 0.00 0.00 0.00 10 1020.5
20260901030036 70 0.0 0.0 0.00 0.00 0.00 10 1020.6
20260901025036 70 0.0 0.0 0.00 0.00 0.00 10 1020.6
20260901024036 70 0.0 0.0 0.00 0.00 0.00 10 1020.7
20260901023036 71 0.0 0.0 0.00 0.00 0.00 10 1020.8
20260901022036 71 0.0 0.0 0.00 0.00 0.00 10 1020.9
20260901021036 72 0.0 0.0 0.00 0.00 0.00 10 1020.9
20260901020036 72 0.0 0.0 0.00 0.00 0.00 10 1021.0
20260901015036 72 0.0 0.0 0.00 0.00 0.00 10 1021.1
20260901014036 73 0.0 0.0 0.00 0.00 0.00 10 1021.0
20260901013041 74 0.0 0.0 0.00 0.00 0.00 10 1021.0
20260901012036 73 0.0 0.0 0.00 0.00 0.00 10 1021.0
20260901011036 73 0.0 0.0 0.00 0.00 0.00 10 1021.0
20260901010036 73 0.0 0.0 0.00 0.00 0.00 10 1021.0
20260901005036 73 0.0 0.0 0.00 0.00 0.00 10 1021.1
20260901004036 73 0.0 0.0 0.00 0.00 0.00 10 1021.3
20260901003036 73 0.0 0.0 0.00 0.00 0.00 10 1021.2
20260901002036 73 0.0 0.0 0.00 0.00 0.00 10 1021.1
20260901001036 73 0.0 0.0 0.00 0.00 0.00 10 1021.1
20260901000036 74 0.0 0.0 0.00 0.00 0.00 10 1021.2
20260831235036 74 0.0 0.0 0.00 0.00 0.00 10 1021.2
20260831234036 74 0.0 0.0 0.00 0.00 0.00 10 1021.1
20260831233036 74 0.0 0.0 0.00 0.00 0.00 10 1021.0
20260831232036 74 0.0 0.0 0.00 0.00 0.00 10 1020.9
20260831231036 74 0.0 0.0 0.00 0.00 0.00 10 1020.9
20260831230036 74 0.0 0.0 0.00 0.00 0.00 10 1020.8
20260831225036 74 0.0 0.0 0.00 0.00 0.00 10 1020.9
20260831224036 74 0.0 0.0 0.00 0.00 0.00 10 1020.8
20260831223037 74 0.0 0.0 0.00 0.00 0.00 10 1020.7
20260831222037 75 0.0 0.0 0.00 0.00 0.00 10 1020.6
20260831221036 75 0.0 0.0 0.00 0.00 0.00 10 1020.6
20260831220037 74 0.0 0.0 0.00 0.00 0.00 10 1020.7
20260831215036 74 0.0 0.0 0.00 0.00 0.00 10 1020.6
20260831214036 75 0.0 0.0 0.00 0.00 0.00 10 1020.5
20260831213036 75 0.0 0.0 0.00 0.00 0.00 10 1020.4
20260831212036 75 0.0 0.0 0.00 0.00 0.00 10 1020.4
20260831211036 75 0.0 0.0 0.00 0.00 0.00 10 1020.3
20260831210036 75 0.0 0.0 0.00 0.00 0.00 10 1020.2
20260831205036 76 0.0 0.0 0.00 0.00 0.00 96 1020.2
20260831204036 76 0.0 0.0 0.00 0.00 0.00 97 1020.1
20260831203037 76 0.0 0.0 0.00 0.00 0.00 93 1020.0
20260831202037 76 0.0 0.0 0.00 0.00 0.00 89 1019.8